Terminal Aerodrome Forecast
Issued by NWS Greer, SC

Home | Current Version | Previous Version | Text Only | Print | Product List | Glossary On
Versions: 1 2 3 4 5 6 7 8 9 10 11 12 13 14 15 16 17 18 19 20 21 22 23 24 25 26 27 28 29 30 31 32 33 34 35 36 37 38 39 40 41 42 43 44 45 46 47 48 49 50
000
FTUS42 KGSP 051410 AAB
TAFCLT
TAF AMD
KCLT 051410Z 0514/0612 21006KT P6SM SCT010 BKN100
      TEMPO 0514/0515 BKN010 OVC100
     FM051500 21008KT P6SM SCT020 BKN100
     FM051900 21010G17KT P6SM VCSH SCT050 BKN090
     FM060100 20009KT P6SM BKN120=

USA.gov is the U.S. government's official web portal to all federal, state and local government web resources and services.